RYR8XK LIPE-LIBC

Flight info

Callsign RYR8XK
Flight time 1h 10m
Altitude 19000
Route PELEG M726 GAVRA/N0412F330 DCT NIKMA DCT IPGOR DCT ALAXI DCT TEA DCT POLIT DCT EVINO/N0327F190 M620 CDC
Aircraft B738/M-SDE3FGILRWY/SB1

Departure

Time 2026-04-22 16:57
Airport Bologna Guglielmo Marconi Airport (LIPE)

Arrival

Time 2026-04-22 18:08
Airport Crotone Sant'Anna Pythagoras Airport (LIBC)
Time Latitude Longitude Altitude Speed Heading
2026-04-22 16:28 44.52990 11.29147 129 ft 0 kts 116°
2026-04-22 16:50 44.52997 11.29125 126 ft 4 kts 109°
2026-04-22 16:50 44.53004 11.29095 124 ft 2 kts 109°
2026-04-22 16:50 44.53006 11.29071 126 ft 4 kts 34°
2026-04-22 16:51 44.52996 11.29062 125 ft 4 kts 27°
2026-04-22 16:51 44.53014 11.29075 126 ft 0 kts 27°
2026-04-22 16:53 44.53020 11.29079 127 ft 3 kts 27°
2026-04-22 16:53 44.53071 11.29116 127 ft 13 kts 27°
2026-04-22 16:53 44.53169 11.29185 130 ft 18 kts 26°
2026-04-22 16:54 44.53261 11.29105 128 ft 19 kts 296°
2026-04-22 16:54 44.53319 11.28945 129 ft 18 kts 297°
2026-04-22 16:54 44.53375 11.28789 127 ft 18 kts 296°
2026-04-22 16:54 44.53435 11.28618 126 ft 21 kts 296°
2026-04-22 16:55 44.53502 11.28435 126 ft 22 kts 297°
2026-04-22 16:55 44.53575 11.28235 128 ft 24 kts 296°
2026-04-22 16:55 44.53652 11.28019 127 ft 26 kts 297°
2026-04-22 16:55 44.53735 11.27789 127 ft 27 kts 297°
2026-04-22 16:56 44.53820 11.27553 128 ft 26 kts 296°
2026-04-22 16:56 44.53908 11.27340 128 ft 25 kts 317°
2026-04-22 16:56 44.54047 11.27218 129 ft 23 kts 349°
2026-04-22 16:56 44.54082 11.27372 126 ft 22 kts 117°
2026-04-22 16:57 44.53921 11.27820 128 ft 86 kts 117°
2026-04-22 16:57 44.53560 11.28827 125 ft 143 kts 114°
2026-04-22 16:57 44.53085 11.30175 435 ft 165 kts 114°
2026-04-22 16:57 44.52639 11.31774 751 ft 191 kts 91°
2026-04-22 16:58 44.52836 11.33031 938 ft 206 kts 63°
2026-04-22 16:58 44.54433 11.34647 1447 ft 224 kts 23°
2026-04-22 16:58 44.55845 11.35378 2404 ft 211 kts 23°
2026-04-22 16:58 44.57181 11.36126 3231 ft 203 kts 27°
2026-04-22 16:59 44.58461 11.36995 3958 ft 203 kts 30°
2026-04-22 16:59 44.59697 11.37915 4779 ft 202 kts 30°
2026-04-22 16:59 44.60927 11.38872 5520 ft 202 kts 30°
2026-04-22 16:59 44.62157 11.39850 6265 ft 205 kts 30°
2026-04-22 17:00 44.63403 11.40850 6960 ft 208 kts 30°
2026-04-22 17:00 44.65705 11.43390 8052 ft 234 kts 62°
2026-04-22 17:00 44.66041 11.45674 8668 ft 249 kts 90°
2026-04-22 17:01 44.65544 11.48114 9119 ft 277 kts 117°
2026-04-22 17:01 44.64197 11.50154 9756 ft 295 kts 141°
2026-04-22 17:01 44.62433 11.51699 10474 ft 304 kts 146°
2026-04-22 17:01 44.60526 11.53234 10770 ft 327 kts 148°
2026-04-22 17:02 44.58509 11.54815 11382 ft 336 kts 148°
2026-04-22 17:02 44.56455 11.56420 12178 ft 340 kts 149°
2026-04-22 17:02 44.54378 11.58049 13012 ft 344 kts 149°
2026-04-22 17:02 44.52280 11.59703 13839 ft 349 kts 149°
2026-04-22 17:03 44.50155 11.61388 14595 ft 354 kts 149°
2026-04-22 17:03 44.48001 11.63100 15331 ft 359 kts 149°
2026-04-22 17:03 44.45813 11.64845 16088 ft 364 kts 149°
2026-04-22 17:03 44.43592 11.66616 16828 ft 370 kts 149°
2026-04-22 17:04 44.41336 11.68416 17584 ft 376 kts 149°
2026-04-22 17:04 44.39048 11.70242 18298 ft 382 kts 149°
2026-04-22 17:04 44.36720 11.72098 18942 ft 388 kts 149°
2026-04-22 17:04 44.34351 11.73985 19498 ft 396 kts 150°
2026-04-22 17:05 44.31934 11.75909 20059 ft 404 kts 150°
2026-04-22 17:05 44.29473 11.77865 20630 ft 411 kts 151°
2026-04-22 17:05 44.26972 11.79851 21201 ft 418 kts 152°
2026-04-22 17:05 44.24424 11.81872 21770 ft 424 kts 152°
2026-04-22 17:06 44.21837 11.83922 22317 ft 431 kts 152°
2026-04-22 17:06 44.19205 11.86006 22870 ft 438 kts 153°
2026-04-22 17:06 44.16538 11.88115 23390 ft 445 kts 153°
2026-04-22 17:06 44.13859 11.90232 23843 ft 452 kts 153°
2026-04-22 17:07 44.11074 11.92430 24301 ft 456 kts 154°
2026-04-22 17:07 44.08340 11.94588 24825 ft 459 kts 154°
2026-04-22 17:07 44.05549 11.96787 25324 ft 464 kts 154°
2026-04-22 17:07 44.02728 11.99008 25780 ft 468 kts 155°
2026-04-22 17:08 43.99886 12.01242 26275 ft 472 kts 155°
2026-04-22 17:08 43.97016 12.03497 26729 ft 476 kts 156°
2026-04-22 17:08 43.94115 12.05771 27096 ft 483 kts 156°
2026-04-22 17:08 43.91165 12.08080 27495 ft 489 kts 156°
2026-04-22 17:09 43.88195 12.10404 27916 ft 492 kts 156°
2026-04-22 17:09 43.85210 12.12738 28413 ft 494 kts 156°
2026-04-22 17:09 43.83223 12.14292 28763 ft 495 kts 156°
2026-04-22 17:09 43.79221 12.17421 29648 ft 492 kts 157°
2026-04-22 17:10 43.76249 12.19742 30229 ft 490 kts 158°
2026-04-22 17:10 43.73292 12.22047 30819 ft 487 kts 157°
2026-04-22 17:10 43.70341 12.24343 31326 ft 486 kts 157°
2026-04-22 17:10 43.67399 12.26627 31825 ft 485 kts 157°
2026-04-22 17:11 43.64455 12.28909 32260 ft 485 kts 157°
2026-04-22 17:11 43.61519 12.31183 32787 ft 483 kts 157°
2026-04-22 17:11 43.58595 12.33446 33199 ft 483 kts 157°
2026-04-22 17:11 43.55640 12.35725 33152 ft 488 kts 157°
2026-04-22 17:12 43.49800 12.40237 33146 ft 476 kts 157°
2026-04-22 17:12 43.44005 12.44698 33167 ft 481 kts 157°
2026-04-22 17:13 43.38131 12.49201 33136 ft 486 kts 157°
2026-04-22 17:13 43.32226 12.53728 33107 ft 483 kts 157°
2026-04-22 17:14 43.26436 12.58169 33124 ft 474 kts 157°
2026-04-22 17:14 43.20659 12.62574 33134 ft 476 kts 157°
2026-04-22 17:15 43.14867 12.66979 33136 ft 477 kts 157°
2026-04-22 17:15 43.09063 12.71387 33132 ft 477 kts 157°
2026-04-22 17:16 43.03293 12.75762 33130 ft 476 kts 157°
2026-04-22 17:16 42.97494 12.80150 33114 ft 477 kts 157°
2026-04-22 17:17 42.91700 12.84524 33107 ft 476 kts 158°
2026-04-22 17:17 42.85926 12.88874 33097 ft 473 kts 158°
2026-04-22 17:18 42.80163 12.93205 33117 ft 473 kts 158°
2026-04-22 17:18 42.74394 12.97531 33092 ft 473 kts 158°
2026-04-22 17:19 42.62885 13.06136 33074 ft 470 kts 157°
2026-04-22 17:20 42.51444 13.14653 33135 ft 469 kts 158°
2026-04-22 17:21 42.42812 13.21050 33110 ft 472 kts 157°
2026-04-22 17:22 42.34157 13.27450 33105 ft 473 kts 157°
2026-04-22 17:23 42.25484 13.33843 33088 ft 474 kts 157°
2026-04-22 17:23 42.16809 13.40218 33099 ft 472 kts 157°
2026-04-22 17:24 42.11062 13.44429 33109 ft 469 kts 157°
2026-04-22 17:24 42.05339 13.48615 33071 ft 467 kts 157°
2026-04-22 17:25 41.99642 13.52772 33113 ft 466 kts 157°
2026-04-22 17:25 41.93933 13.56927 33100 ft 467 kts 157°
2026-04-22 17:26 41.88207 13.61087 33071 ft 469 kts 157°
2026-04-22 17:26 41.82462 13.65252 33092 ft 471 kts 157°
2026-04-22 17:27 41.76690 13.69428 33066 ft 471 kts 157°
2026-04-22 17:27 41.70959 13.73570 33077 ft 471 kts 157°
2026-04-22 17:28 41.65191 13.77728 33079 ft 471 kts 157°
2026-04-22 17:28 41.59423 13.81878 33074 ft 471 kts 157°
2026-04-22 17:29 41.54591 13.85346 33046 ft 469 kts 157°
2026-04-22 17:29 41.48861 13.89455 33060 ft 466 kts 157°
2026-04-22 17:30 41.43163 13.93530 33062 ft 463 kts 157°
2026-04-22 17:30 41.37535 13.97547 33040 ft 461 kts 157°
2026-04-22 17:31 41.31883 14.01571 33042 ft 459 kts 157°
2026-04-22 17:31 41.26260 14.05569 33048 ft 458 kts 157°
2026-04-22 17:32 41.20643 14.09553 33055 ft 458 kts 157°
2026-04-22 17:32 41.15025 14.13530 33051 ft 458 kts 158°
2026-04-22 17:33 41.09398 14.17506 33023 ft 458 kts 157°
2026-04-22 17:33 41.03779 14.21470 33041 ft 458 kts 157°
2026-04-22 17:34 40.98148 14.25434 33053 ft 458 kts 158°
2026-04-22 17:34 40.92522 14.29388 33047 ft 458 kts 158°
2026-04-22 17:35 40.86893 14.33335 33011 ft 458 kts 158°
2026-04-22 17:35 40.81279 14.37265 33043 ft 456 kts 158°
2026-04-22 17:36 40.75674 14.41180 33033 ft 456 kts 158°
2026-04-22 17:36 40.70077 14.45083 33034 ft 454 kts 158°
2026-04-22 17:37 40.64488 14.48972 33005 ft 455 kts 158°
2026-04-22 17:37 40.58908 14.52848 33020 ft 452 kts 158°
2026-04-22 17:38 40.53350 14.56701 33032 ft 451 kts 158°
2026-04-22 17:38 40.47800 14.60541 33017 ft 450 kts 158°
2026-04-22 17:39 40.42253 14.64372 33023 ft 450 kts 158°
2026-04-22 17:40 40.33933 14.70105 33016 ft 450 kts 158°
2026-04-22 17:40 40.28416 14.73897 33013 ft 451 kts 158°
2026-04-22 17:41 40.22852 14.77716 33012 ft 452 kts 158°
2026-04-22 17:41 40.17276 14.81536 32974 ft 453 kts 158°
2026-04-22 17:42 40.12011 14.86101 33006 ft 459 kts 143°
2026-04-22 17:42 40.07212 14.91623 32996 ft 460 kts 142°
2026-04-22 17:43 40.02416 14.97161 32998 ft 460 kts 142°
2026-04-22 17:43 39.97591 15.02636 32994 ft 460 kts 143°
2026-04-22 17:44 39.92747 15.08087 32994 ft 460 kts 143°
2026-04-22 17:44 39.87904 15.13522 32987 ft 458 kts 143°
2026-04-22 17:45 39.83066 15.18946 32615 ft 461 kts 143°
2026-04-22 17:45 39.80652 15.21650 32297 ft 455 kts 143°
2026-04-22 17:45 39.78257 15.24330 31904 ft 453 kts 143°
2026-04-22 17:45 39.75880 15.26989 31534 ft 449 kts 143°
2026-04-22 17:46 39.73515 15.29629 31193 ft 447 kts 143°
2026-04-22 17:46 39.71167 15.32248 30817 ft 444 kts 143°
2026-04-22 17:46 39.68826 15.34862 30449 ft 442 kts 143°
2026-04-22 17:46 39.66502 15.37459 30094 ft 440 kts 143°
2026-04-22 17:47 39.64184 15.40050 29674 ft 438 kts 143°
2026-04-22 17:47 39.61884 15.42619 29271 ft 435 kts 143°
2026-04-22 17:47 39.59600 15.45169 28883 ft 432 kts 143°
2026-04-22 17:47 39.57336 15.47693 28510 ft 428 kts 143°
2026-04-22 17:48 39.55845 15.49354 28249 ft 426 kts 143°
2026-04-22 17:48 39.52846 15.52691 27765 ft 422 kts 143°
2026-04-22 17:48 39.50624 15.55161 27397 ft 420 kts 143°
2026-04-22 17:48 39.48417 15.57612 27033 ft 417 kts 143°
2026-04-22 17:49 39.46220 15.60050 26670 ft 414 kts 143°
2026-04-22 17:49 39.44035 15.62472 26307 ft 412 kts 143°
2026-04-22 17:49 39.41863 15.64878 25961 ft 410 kts 143°
2026-04-22 17:49 39.39702 15.67269 25583 ft 408 kts 143°
2026-04-22 17:50 39.37555 15.69644 25239 ft 405 kts 143°
2026-04-22 17:50 39.35415 15.72008 24887 ft 403 kts 143°
2026-04-22 17:50 39.33286 15.74360 24537 ft 402 kts 143°
2026-04-22 17:50 39.31196 15.76666 24198 ft 400 kts 143°
2026-04-22 17:51 39.29079 15.78999 23833 ft 399 kts 143°
2026-04-22 17:51 39.26974 15.81313 23486 ft 397 kts 144°
2026-04-22 17:51 39.24878 15.83597 23190 ft 392 kts 144°
2026-04-22 17:51 39.22798 15.85853 22821 ft 390 kts 144°
2026-04-22 17:52 39.20729 15.88094 22460 ft 387 kts 144°
2026-04-22 17:52 39.18675 15.90318 22102 ft 385 kts 144°
2026-04-22 17:52 39.16632 15.92533 21761 ft 383 kts 144°
2026-04-22 17:52 39.14600 15.94734 21382 ft 381 kts 144°
2026-04-22 17:53 39.12575 15.96925 21042 ft 378 kts 144°
2026-04-22 17:53 39.10575 15.99096 20745 ft 375 kts 144°
2026-04-22 17:53 39.08588 16.01255 20406 ft 373 kts 144°
2026-04-22 17:53 39.06605 16.03411 20060 ft 372 kts 144°
2026-04-22 17:54 39.04634 16.05551 19713 ft 371 kts 144°
2026-04-22 17:54 39.02664 16.07690 19349 ft 370 kts 144°
2026-04-22 17:54 39.00696 16.09823 19005 ft 369 kts 144°
2026-04-22 17:54 38.98731 16.11952 18637 ft 370 kts 144°
2026-04-22 17:55 38.97430 16.13360 18402 ft 369 kts 144°
2026-04-22 17:55 38.94804 16.16202 17884 ft 369 kts 143°
2026-04-22 17:55 38.92847 16.18318 17517 ft 367 kts 143°
2026-04-22 17:55 38.90898 16.20424 17161 ft 365 kts 143°
2026-04-22 17:56 38.88958 16.22518 16811 ft 363 kts 143°
2026-04-22 17:56 38.87054 16.24572 16462 ft 361 kts 143°
2026-04-22 17:56 38.85134 16.26643 16126 ft 360 kts 143°
2026-04-22 17:56 38.83225 16.28700 15788 ft 358 kts 143°
2026-04-22 17:57 38.81320 16.30751 15458 ft 357 kts 143°
2026-04-22 17:57 38.79420 16.32794 15118 ft 356 kts 143°
2026-04-22 17:57 38.77547 16.34853 14794 ft 356 kts 137°
2026-04-22 17:57 38.76165 16.37471 14438 ft 357 kts 110°
2026-04-22 17:58 38.75628 16.40534 14129 ft 350 kts 88°
2026-04-22 17:58 38.75649 16.43632 13801 ft 347 kts 84°
2026-04-22 17:58 38.75742 16.46716 13405 ft 345 kts 83°
2026-04-22 17:58 38.75845 16.49772 13104 ft 342 kts 83°
2026-04-22 17:59 38.75939 16.52815 12758 ft 341 kts 83°
2026-04-22 17:59 38.76023 16.55844 12431 ft 339 kts 84°
2026-04-22 17:59 38.76098 16.58853 12111 ft 338 kts 84°
2026-04-22 17:59 38.76169 16.61856 11781 ft 336 kts 84°
2026-04-22 18:00 38.76214 16.63872 11572 ft 335 kts 84°
2026-04-22 18:00 38.76299 16.67804 11158 ft 332 kts 84°
2026-04-22 18:00 38.76363 16.70757 10852 ft 330 kts 84°
2026-04-22 18:00 38.76425 16.73689 10545 ft 328 kts 85°
2026-04-22 18:01 38.76486 16.76605 10241 ft 327 kts 85°
2026-04-22 18:01 38.76546 16.79471 10041 ft 315 kts 84°
2026-04-22 18:01 38.76779 16.82222 9491 ft 311 kts 75°
2026-04-22 18:01 38.77214 16.84926 8961 ft 308 kts 73°
2026-04-22 18:02 38.77678 16.87601 8438 ft 306 kts 73°
2026-04-22 18:02 38.78130 16.90258 7923 ft 304 kts 74°
2026-04-22 18:02 38.78564 16.92901 7426 ft 302 kts 75°
2026-04-22 18:02 38.78984 16.95529 6926 ft 300 kts 76°
2026-04-22 18:03 38.79392 16.98133 6429 ft 298 kts 77°
2026-04-22 18:03 38.79794 17.00727 5900 ft 296 kts 76°
2026-04-22 18:03 38.80191 17.03300 5387 ft 292 kts 77°
2026-04-22 18:03 38.80579 17.05831 4918 ft 287 kts 76°
2026-04-22 18:04 38.80959 17.08320 4411 ft 282 kts 74°
2026-04-22 18:04 38.81703 17.10552 3915 ft 266 kts 45°
2026-04-22 18:04 38.83221 17.11689 3606 ft 249 kts
2026-04-22 18:04 38.84855 17.11460 3431 ft 235 kts 346°
2026-04-22 18:05 38.86417 17.10887 3091 ft 230 kts 348°
2026-04-22 18:05 38.87952 17.10438 2773 ft 223 kts 351°
2026-04-22 18:05 38.89455 17.10097 2482 ft 212 kts 353°
2026-04-22 18:05 38.90839 17.09799 2188 ft 191 kts 353°
2026-04-22 18:06 38.92089 17.09643 1923 ft 170 kts
2026-04-22 18:06 38.93214 17.09598 1719 ft 153 kts 357°
2026-04-22 18:06 38.94197 17.09395 1554 ft 133 kts 353°
2026-04-22 18:06 38.95074 17.09174 1308 ft 127 kts 352°
2026-04-22 18:07 38.95641 17.09033 1153 ft 124 kts 353°
2026-04-22 18:07 38.96774 17.08774 959 ft 126 kts 351°
2026-04-22 18:07 38.97659 17.08550 823 ft 129 kts 348°
2026-04-22 18:07 38.98528 17.08324 637 ft 127 kts 349°
2026-04-22 18:08 38.99375 17.08111 526 ft 112 kts 349°
2026-04-22 18:08 38.99930 17.07972 525 ft 50 kts 349°
2026-04-22 18:08 39.00200 17.07904 528 ft 37 kts 348°
2026-04-22 18:08 39.00437 17.07845 529 ft 32 kts 349°
2026-04-22 18:09 39.00572 17.07766 530 ft 10 kts 347°
2026-04-22 18:09 39.00595 17.07810 530 ft 5 kts 129°
2026-04-22 18:09 39.00558 17.07819 531 ft 7 kts 175°
2026-04-22 18:09 39.00469 17.07835 530 ft 20 kts 169°
2026-04-22 18:10 39.00295 17.07879 528 ft 28 kts 169°
2026-04-22 18:10 39.00110 17.07927 527 ft 26 kts 168°
2026-04-22 18:10 38.99936 17.07971 525 ft 24 kts 169°
2026-04-22 18:10 38.99775 17.08010 522 ft 23 kts 169°
2026-04-22 18:11 38.99652 17.07944 525 ft 22 kts 249°
2026-04-22 18:11 38.99549 17.07842 526 ft 22 kts 171°
2026-04-22 18:11 38.99473 17.07846 526 ft 6 kts 221°
2026-04-22 18:11 38.99467 17.07811 527 ft 3 kts 285°
2026-04-22 18:12 38.99467 17.07810 527 ft 0 kts 288°
2026-04-22 18:12 38.99471 17.07805 527 ft 3 kts 309°
2026-04-22 18:12 38.99472 17.07804 527 ft 0 kts 306°